Location: *
(40.5333°N, 4.3167°W)
Time: 01:21:25
(UTC+00:00)

Daily predictions for brighter satellites

Satellite Brightness Start Highest point End
(mag) Time Altitude Azimuth Time Altitude Azimuth Time Altitude Azimuth
Cosmos 2082 Rocket 4.3 03:49:32 22° E 03:49:32 22° E 03:52:47 10° NE
Cosmos 1980 Rocket 3.5 04:14:14 36° E 04:14:14 36° E 04:18:17 10° SE
CZ-3 Stage 3 4.3 04:47:16 39° SW 04:51:53 56° S 05:27:55 10° ESE
Nadezhda 4 Rocket 4.0 05:07:04 10° S 05:13:22 81° E 05:19:41 10° N
CZ-4 R/B 4.1 05:13:16 10° NNE 05:17:52 63° ESE 05:22:25 10° S
NOSS 2-1 (D) 4.2 05:17:47 40° NNE 05:18:31 45° NE 05:23:11 10° SE
SL-24 R/B - RUBIN 2 3.7 05:19:22 57° SSW 05:19:22 57° SSW 05:23:06 10° SSE
Cosmos 841 Rocket 3.4 05:15:03 10° SSW 05:20:16 88° ESE 05:25:33 10° NNE
COSMOS 2406 3.3 05:15:05 10° SSW 05:20:43 75° ESE 05:26:24 10° NNE
USA 59 Rocket 0.5 05:20:26 46° NNE 05:21:12 54° NE 05:26:06 10° SE
CZ-3 R/B 4.0 05:14:25 25° WSW 05:22:07 34° SW 05:29:50 10° SSE
NOSS 2-1 (E) 4.4 05:25:12 33° N 05:26:23 42° NE 05:30:58 10° SE
NOSS 3-1 (C) 4.5 05:21:26 20° NNW 05:26:46 63° NE 05:35:40 10° SE
Cosmos 1933 3.0 05:27:10 87° NNE 05:27:13 88° E 05:31:01 10° S
Cosmos 1892 Rocket 4.3 05:23:19 10° S 05:27:32 54° E 05:31:49 10° NNE
ATLAS CENTAUR Rocket 4.2 05:27:04 12° SSW 05:30:44 28° SSE 05:40:36 10° E
Cosmos 2082 Rocket 2.3 05:31:29 45° W 05:32:07 47° WNW 05:37:32 10° NNE
SL-16 R/B 3.4 05:28:41 10° N 05:34:00 40° ENE 05:39:18 10° SE
COSMOS 2455 2.8 05:41:19 25° NW 05:44:59 75° WSW 05:50:58 10° SSE
IRS-1D 3.4 05:40:07 10° N 05:45:03 61° WNW 05:50:03 10° SSW
Cosmos 1898 Rocket 3.4 05:42:42 24° NNW 05:45:53 71° WSW 05:51:07 10° S
NOSS 2-1 (C) 3.5 05:44:49 36° NNW 05:46:23 80° ENE 05:51:26 10° SE
SWAS 4.2 05:51:06 27° NNW 05:53:15 90° SW 05:57:16 10° SSE
Cosmos 2098 Rocket 4.5 05:53:04 29° WNW 05:53:40 29° W 05:58:32 10° SW
COSMO-SKYMED 1 2.3 05:51:05 10° S 05:55:12 82° WSW 05:59:09 11° NNW
Delta 2 Rocket 4.2 05:54:41 21° SSW 05:55:14 22° SSW 05:57:40 10° SE
Cosmos-2242 3.9 05:51:56 10° N 05:56:03 47° E 06:00:06 10° SSE
Cosmos 1980 Rocket 3.0 05:56:02 26° W 05:56:47 27° WSW 06:01:24 10° SSW
Cosmos 2278 4.4 05:51:40 10° NNW 05:57:13 53° ENE 06:02:42 10° SE
SKYMED 2 3.7 05:54:07 10° S 05:58:19 50° W 06:01:14 19° NNW
Cosmos 1627 Rocket 4.4 05:54:14 10° S 06:00:20 83° W 06:06:30 10° N
Tiangong -1.7 05:59:42 38° WSW 06:00:32 52° SSW 06:03:41 10° ESE
Cosmos 2369 4.0 05:58:13 22° NW 06:01:39 47° WSW 06:07:01 10° S
Cosmos 2058 Rocket 3.4 05:58:50 10° N 06:03:15 66° E 06:07:36 10° SSE
Cosmos 1484 Rocket 2.5 06:00:08 10° NNE 06:03:33 76° ESE 06:06:54 10° S
Okean 1 3.8 06:05:26 10° N 06:08:56 52° E 06:12:23 10° SSE
Cosmos 1937 Rocket 3.5 06:06:02 13° NNW 06:10:27 57° WSW 06:15:27 10° S
Cosmos 858 Rocket 4.4 06:05:21 10° NNW 06:10:33 83° WSW 06:15:44 10° SSE
NOAA 12 4.5 06:06:55 10° N 06:11:50 40° WNW 06:16:41 10° SW
ATLAS 2AS CENTAUR R/B 4.5 06:05:45 10° S 06:12:04 36° ESE 06:18:15 10° NE
ARIANE 5 R/B 4.5 06:11:06 10° NNE 06:15:48 33° E 06:20:28 10° SSE
Cosmos 2333 Rocket 2.4 06:17:19 10° NNW 06:23:07 75° ENE 06:28:50 10° SSE
Helios 1A Rocket 3.2 06:23:53 10° SSW 06:26:51 30° W 06:29:20 13° NW
SMAP 3.7 06:22:25 10° NNE 06:27:02 59° E 06:31:37 10° S
Cosmos 2360 Rocket 2.8 06:24:02 10° NNW 06:29:35 56° ENE 06:35:05 10° SE
Cosmos 2026 Rocket 4.2 06:24:08 10° SSW 06:29:53 45° WNW 06:35:42 10° N
DMSP B5D1-3 4.5 06:26:06 10° S 06:31:11 71° WSW 06:36:18 10° NNW
Cosmos 1814 Rocket 4.0 06:26:15 10° SSW 06:31:27 88° W 06:36:46 10° NNE
NOSS 3-1 (A) 4.4 06:25:59 10° NNW 06:33:25 75° NE 06:42:32 10° SE
IRIDIUM 103 4.3 06:28:57 10° S 06:34:10 89° W 06:39:25 10° N
CBERS-1 3.9 06:30:41 10° N 06:35:46 71° WNW 06:40:49 10° SSW
BREEZE-M DEB (TANK) 3.7 06:34:38 11° NNW 06:35:52 18° NNE 06:37:41 10° ENE
IGS 5A 3.5 06:32:36 10° N 06:36:29 52° WNW 06:40:22 10° SSW
Cosmos 1758 Rocket 3.6 06:33:37 10° S 06:38:03 86° E 06:42:29 10° N
Cosmos 1733 1.1 06:37:16 10° SSW 06:39:05 72° W 06:40:55 10° N
Cosmos 1743 2.9 06:36:05 10° S 06:39:15 58° E 06:42:27 10° NNE
SL-4 R/B 3.5 06:37:17 10° NNW 06:39:27 17° NNE 06:41:35 10° ENE
BREEZE-M DEB (TANK) 4.2 06:42:40 12° WNW 06:44:54 26° N 06:49:56 10° ENE
Meteor 2-6 Rocket 4.5 06:40:54 10° N 06:46:55 86° E 06:52:51 10° S
Thor Agena Rocket 3.4 06:43:12 10° NNE 06:48:17 79° WNW 06:53:17 10° SSW
Cosmos 2219 Rocket 3.2 06:42:56 10° NNW 06:48:24 47° ENE 06:53:48 10° SE
Cosmos 2322 Rocket 2.2 06:45:53 10° NNW 06:51:36 86° WSW 06:57:16 10° SSE
IRIDIUM 106 4.4 06:47:22 10° SSW 06:52:30 60° W 06:57:40 10° N
Cosmos 1553 Rocket 4.1 06:49:08 10° NNW 06:55:29 68° W 07:01:49 10° S
SJ-12 3.7 06:56:29 10° N 07:00:17 83° WNW 07:04:06 10° SSW
